Change the Weather History Date:

Monday, May 20, 2013

  Actual Average Record
Temperature  
Mean Temperature 55 °F 54 °F  
Max Temperature 61 °F 66 °F 92 °F (1975)
Min Temperature 49 °F 42 °F 24 °F (1924)
Degree Days  
Heating Degree Days 10 12  
Month to date heating degree days 245 289  
Since 1 July heating degree days 7486 7848  
Cooling Degree Days 0 0  
Month to date cooling degree days 1 0  
Year to date cooling degree days 1 2  
Growing Degree Days 4 (Base 50)    
Moisture  
Dew Point 53 °F    
Average Humidity 89    
Maximum Humidity 100    
Minimum Humidity 78    
Precipitation  
Precipitation 0.66 in 0.09 in 1.09 in (1946)
Month to date precipitation 2.43 1.66  
Year to date precipitation 13.10 8.89  
Sea Level Pressure  
Sea Level Pressure 29.86 in    
Wind  
Wind Speed 7 mph (East)    
Max Wind Speed 22 mph    
Max Gust Speed 32 mph    
Visibility 2 miles    
Events Fog , Rain , Thunderstorm    
T = Trace of Precipitation, MM = Missing Value Source: NWS Daily Summary

Daily Weather History Graph

Daily Weather History Graph

Search for Another Location

Airport or City:

Trip Planner

Search our weather history database for the weather conditions in past years. The results will help you decide how hot, cold, wet, or windy it might be!

Date:

Astronomy

May. 20, 2013 Rise Set
Actual Time 5:59 AM EDT 9:02 PM EDT
Civil Twilight 5:24 AM EDT 9:37 PM EDT
Nautical Twilight 4:39 AM EDT 10:22 PM EDT
Astronomical Twilight 3:45 AM EDT 11:17 PM EDT
Moon 3:57 PM EDT (5/20) 3:07 AM EDT (5/20)
Length of Visible Light 16h 13m
Length of Day
15h 03m
Waxing Gibbous, 75% of the Moon is Illuminated
May 20
Waxing Gibbous
May 25
Full
May 31
Last Quarter
Jun 8
New
Jun 16
First Quarter

Hourly Weather History & Observations

Time (EDT) Temp. Dew Point Humidity Pressure Visibility Wind Dir Wind Speed Gust Speed Precip Events Conditions
12:54 AM 53.1 °F 50.0 °F 89% 29.94 in 4.0 mi Calm Calm - N/A   Overcast
1:54 AM 53.1 °F 50.0 °F 89% 29.93 in 4.0 mi Calm Calm - N/A   Partly Cloudy
2:54 AM 53.1 °F 51.1 °F 93% 29.92 in 3.0 mi East 3.5 mph - N/A   Clear
3:06 AM 53.6 °F 51.8 °F 94% 29.91 in 2.5 mi Calm Calm - N/A   Clear
3:54 AM 52.0 °F 51.1 °F 97% 29.91 in 2.5 mi Calm Calm - N/A   Partly Cloudy
4:54 AM 53.1 °F 51.1 °F 93% 29.93 in 2.5 mi Calm Calm - N/A   Clear
5:09 AM 53.6 °F 51.8 °F 94% 29.93 in 3.0 mi Calm Calm - N/A   Mostly Cloudy
5:45 AM 51.8 °F 50.0 °F 94% 29.93 in 2.5 mi ENE 4.6 mph - N/A   Scattered Clouds
5:54 AM 52.0 °F 50.0 °F 93% 29.93 in 2.5 mi ENE 4.6 mph - N/A   Partly Cloudy
6:23 AM 48.2 °F 46.4 °F 93% 29.91 in 3.0 mi ENE 6.9 mph - N/A   Clear
6:34 AM 48.2 °F 46.4 °F 93% 29.93 in 3.0 mi Calm Calm - N/A   Partly Cloudy
6:42 AM 48.2 °F 46.4 °F 93% 29.94 in 2.5 mi North 4.6 mph - N/A   Mostly Cloudy
6:54 AM 48.9 °F 46.9 °F 93% 29.94 in 2.0 mi NE 4.6 mph - N/A   Mostly Cloudy
7:09 AM 48.2 °F 46.4 °F 93% 29.93 in 1.8 mi East 4.6 mph - N/A   Overcast
7:21 AM 50.0 °F 48.2 °F 94% 29.93 in 2.0 mi ESE 4.6 mph - N/A   Overcast
7:54 AM 52.0 °F 50.0 °F 93% 29.94 in 2.0 mi East 6.9 mph - N/A   Overcast
8:01 AM 51.8 °F 50.0 °F 94% 29.92 in 1.5 mi East 6.9 mph - N/A   Overcast
8:29 AM 55.4 °F 53.6 °F 94% 29.91 in 2.0 mi East 12.7 mph - N/A   Overcast
8:54 AM 55.9 °F 53.1 °F 90% 29.94 in 2.5 mi East 11.5 mph - N/A   Overcast
9:40 AM 53.6 °F 51.8 °F 94% 29.94 in 3.0 mi East 12.7 mph - N/A   Overcast
9:54 AM 53.1 °F 51.1 °F 93% 29.95 in 3.0 mi East 10.4 mph - N/A   Overcast
10:54 AM 54.0 °F 51.1 °F 90% 29.94 in 5.0 mi East 6.9 mph - N/A   Overcast
11:54 AM 55.9 °F 51.1 °F 84% 29.93 in 5.0 mi SE 10.4 mph - N/A   Haze
12:19 PM 55.4 °F 51.8 °F 88% 29.90 in 2.5 mi East 11.5 mph 19.6 mph N/A   Overcast
12:54 PM 55.0 °F 52.0 °F 89% 29.90 in 1.2 mi ESE 15.0 mph 21.9 mph N/A   Overcast
1:04 PM 55.4 °F 53.6 °F 94% 29.89 in 0.8 mi ESE 13.8 mph 21.9 mph N/A   Overcast
1:11 PM 55.4 °F 53.6 °F 94% 29.89 in 2.0 mi ESE 13.8 mph 19.6 mph N/A   Overcast
1:28 PM 57.2 °F 53.6 °F 88% 29.88 in 3.0 mi ESE 13.8 mph 20.7 mph N/A   Overcast
1:54 PM 60.1 °F 54.0 °F 80% 29.86 in 5.0 mi ESE 12.7 mph 19.6 mph N/A   Haze
2:54 PM 57.0 °F 53.1 °F 87% 29.83 in 3.0 mi ESE 17.3 mph 27.6 mph N/A   Overcast
3:54 PM 59.0 °F 54.0 °F 83% 29.80 in 4.0 mi ESE 20.7 mph 25.3 mph N/A   Haze
4:37 PM 59.0 °F 55.4 °F 88% 29.78 in 4.0 mi ESE 12.7 mph 20.7 mph N/A Thunderstorm Overcast
4:49 PM 57.2 °F 55.4 °F 94% 29.81 in 4.0 mi Calm Calm - 0.00 in Rain , Thunderstorm Light Thunderstorms and Rain
4:54 PM 57.9 °F 55.0 °F 90% 29.82 in 4.0 mi SSW 11.5 mph 25.3 mph 0.00 in Rain , Thunderstorm Light Thunderstorms and Rain
5:00 PM 55.4 °F 53.6 °F 94% 29.87 in 1.5 mi SSE 8.1 mph 26.5 mph 0.00 in Rain , Thunderstorm Light Thunderstorms and Rain
5:19 PM 53.6 °F 53.6 °F 100% 29.80 in 1.8 mi ESE 10.4 mph - 0.48 in Rain , Thunderstorm Heavy Thunderstorms and Rain
5:41 PM 53.6 °F 53.6 °F 100% 29.79 in 2.5 mi ESE 12.7 mph 19.6 mph 0.61 in Rain , Thunderstorm Light Thunderstorms and Rain
5:54 PM 55.0 °F 53.1 °F 93% 29.81 in 4.0 mi ESE 8.1 mph - 0.61 in Rain , Thunderstorm Light Thunderstorms and Rain
6:01 PM 55.4 °F 53.6 °F 94% 29.79 in 3.0 mi SE 5.8 mph - 0.00 in Rain , Thunderstorm Light Thunderstorms and Rain
6:10 PM 55.4 °F 53.6 °F 94% 29.79 in 3.0 mi ESE 5.8 mph - 0.02 in Rain , Thunderstorm Light Thunderstorms and Rain
6:38 PM 55.4 °F 53.6 °F 94% 29.81 in 4.0 mi SSE 6.9 mph - 0.02 in Rain Light Rain
6:54 PM 55.9 °F 54.0 °F 93% 29.80 in 3.0 mi Calm Calm - 0.02 in Rain Light Rain
7:13 PM 55.4 °F 53.6 °F 94% 29.78 in 2.5 mi ENE 3.5 mph - 0.02 in Rain , Thunderstorm Light Thunderstorms and Rain
7:21 PM 55.4 °F 55.4 °F 100% 29.76 in 2.0 mi Calm Calm - 0.03 in Rain , Thunderstorm Light Thunderstorms and Rain
7:35 PM 55.4 °F 55.4 °F 100% 29.76 in 2.5 mi Calm Calm - 0.03 in   Overcast
7:54 PM 55.9 °F 55.0 °F 97% 29.78 in 2.0 mi Calm Calm - 0.03 in   Overcast
8:24 PM 55.4 °F 53.6 °F 94% 29.80 in 1.5 mi ESE 4.6 mph - N/A   Overcast
8:44 PM 55.4 °F 55.4 °F 100% 29.80 in 0.5 mi NE 3.5 mph - N/A Fog Fog
8:51 PM 55.4 °F 55.4 °F 100% 29.80 in 0.2 mi NE 3.5 mph - N/A Fog Fog
8:54 PM 55.9 °F 55.0 °F 97% 29.81 in 0.2 mi NE 4.6 mph - N/A Fog Fog
9:17 PM 55.4 °F 55.4 °F 100% 29.80 in 0.2 mi NE 5.8 mph - N/A Fog Fog
9:54 PM 57.0 °F 55.9 °F 96% 29.83 in 0.2 mi East 3.5 mph - N/A Fog Fog
10:24 PM 55.4 °F 55.4 °F 100% 29.83 in 0.5 mi East 3.5 mph - N/A Fog Fog
10:32 PM 55.4 °F 55.4 °F 100% 29.83 in 0.2 mi East 5.8 mph - N/A Fog Fog
10:39 PM 55.4 °F 55.4 °F 100% 29.82 in 0.5 mi East 4.6 mph - N/A Fog Fog
10:54 PM 55.0 °F 54.0 °F 96% 29.83 in 0.2 mi ENE 3.5 mph - N/A Fog Fog
11:16 PM 55.4 °F 53.6 °F 94% 29.82 in 0.2 mi Calm Calm - N/A Fog Fog
11:34 PM 53.6 °F 53.6 °F 100% 29.82 in 0.2 mi East 5.8 mph - N/A Fog Fog
11:41 PM 53.6 °F 53.6 °F 100% 29.82 in 0.2 mi East 3.5 mph - N/A Fog Fog
11:54 PM 53.1 °F 52.0 °F 96% 29.83 in 0.2 mi ESE 3.5 mph - N/A Fog Fog